This demonstration page uses our WeatherBlox Daily Observations layout. Learn more.

Left ArrowRight Arrow

39.51506, -84.39828

Hourly Observations for January 20, 2015

Temp ( °F °C ) Dew Point ( °F °C ) Humidity (%) Winds ( mph kmh ) Pressure ( in mb ) Visibility ( mi km ) Precip ( " mm )
12:15 am 00:15 Mostly Cloudy 34 1.2 30 -1 85 85 ENE 5 7 29.97 1015 10 16 0.00 0.00
12:35 am 00:35 Mostly Cloudy 34 1.2 30 -1 85 85 NNE 5 7 29.97 1015 10 16 0.00 0.00
12:55 am 00:55 Mostly Cloudy 34 1.2 31 -0.8 87 87 NNE 7 11 29.94 1014 10 16 0.00 0.00
1:15 am 01:15 Cloudy 34 1.2 30 -1 85 85 Calm 29.94 1014 10 16 0.00 0.00
1:35 am 01:35 Cloudy 34 1.2 30 -1 85 85 Calm 29.94 1014 10 16 0.00 0.00
1:55 am 01:55 Cloudy 34 1.2 30 -0.9 86 86 Calm 29.94 1014 10 16 0.00 0.00
2:15 am 02:15 Mostly Cloudy 34 1.2 31 -0.7 87 87 NNE 3 6 29.94 1014 10 16 0.00 0.00
2:35 am 02:35 Mostly Cloudy 34 1.2 31 -0.8 87 87 Calm 29.94 1014 10 16 0.00 0.00
2:55 am 02:55 Cloudy 34 1.2 30 -1 85 85 NNE 3 6 29.94 1014 10 16 0.00 0.00
3:15 am 03:15 Cloudy 34 1.2 31 -0.8 87 87 NE 3 6 29.94 1014 10 16 0.00 0.00
3:35 am 03:35 Cloudy 34 1.2 30 -1 85 85 Calm 29.94 1014 7 11 0.00 0.00
3:55 am 03:55 Cloudy 34 1.2 31 -0.7 87 87 Calm 29.94 1014 7 11 0.00 0.00
4:15 am 04:15 Cloudy 34 1.2 31 -0.8 87 87 Calm 29.94 1014 7 11 0.00 0.00
4:35 am 04:35 Cloudy 34 1.2 31 -0.7 87 87 Calm 29.94 1014 7 11 0.00 0.00
4:55 am 04:55 Cloudy 34 1.2 31 -0.6 88 88 Calm 29.94 1014 7 11 0.00 0.00
5:15 am 05:15 Cloudy 34 1.2 31 -0.6 88 88 Calm 29.94 1014 10 16 0.00 0.00
5:35 am 05:35 Cloudy 34 1.2 31 -0.7 87 87 Calm 29.94 1014 7 11 0.00 0.00
5:55 am 05:55 Cloudy 34 1.2 31 -0.6 88 88 N 3 6 29.94 1014 10 16 0.00 0.00
6:15 am 06:15 Cloudy 34 1.2 31 -0.8 87 87 Calm 29.94 1014 10 16 0.00 0.00
6:35 am 06:35 Cloudy 34 1.2 31 -0.8 87 87 NE 5 7 29.91 1013 10 16 0.00 0.00
6:55 am 06:55 Cloudy 36 2.4 32 -0.1 84 84 Calm 29.94 1014 10 16 0.00 0.00
7:15 am 07:15 Cloudy 37 2.6 32 -0.1 83 83 Calm 29.91 1013 10 16 0.00 0.00
7:35 am 07:35 Cloudy 35 1.8 31 -0.6 84 84 Calm 29.94 1014 10 16 0.00 0.00
7:55 am 07:55 Cloudy 35 1.9 31 -0.5 84 84 Calm 29.94 1014 10 16 0.00 0.00
8:15 am 08:15 Cloudy 36 2 31 -0.6 83 83 Calm 29.94 1014 10 16 0.00 0.00
8:35 am 08:35 Cloudy 34 1.2 30 -1.2 84 84 NNE 3 6 29.94 1014 10 16 0.00 0.00
8:55 am 08:55 Cloudy 34 1.2 30 -1.3 84 84 Calm 29.94 1014 10 16 0.00 0.00
9:15 am 09:15 Partly Cloudy 36 2.2 31 -0.5 83 83 NNE 5 7 29.97 1015 10 16 0.00 0.00
9:35 am 09:35 Mostly Cloudy 37 2.6 31 -0.5 80 80 Calm 29.91 1013 10 16 0.00 0.00
9:55 am 09:55 Partly Cloudy 37 2.6 32 -0.1 83 83 Calm 29.94 1014 10 16 0.00 0.00
10:15 am 10:15 Mostly Cloudy 40 4.2 32 -0.2 73 73 Calm 29.94 1014 10 16 0.00 0.00
10:55 am 10:55 Mostly Cloudy 42 5.4 32 -0.2 68 68 NE 3 6 29.94 1014 10 16 0.00 0.00
11:15 am 11:15 Partly Cloudy 44 6.6 32 -0.1 63 63 NE 5 7 29.94 1014 10 16 0.00 0.00
11:35 am 11:35 Sunny 47 8.2 33 0.4 58 58 Calm 29.94 1014 10 16 0.00 0.00
11:55 am 11:55 Sunny 49 9.6 32 -0.1 51 51 SE 5 7 29.94 1014 10 16 0.00 0.00
12:15 pm 12:15 Sunny 49 9.6 30 -1.2 47 47 Calm 29.94 1014 10 16 0.00 0.00
12:35 pm 12:35 Sunny 49 9.6 28 -2.3 44 44 S 3 6 29.91 1013 10 16 0.00 0.00
12:55 pm 12:55 Sunny 51 10.6 30 -1.3 44 44 Calm 29.91 1013 10 16 0.00 0.00
1:15 pm 13:15 Sunny 51 10.7 29 -1.4 43 43 Calm 29.91 1013 10 16 0.00 0.00
1:35 pm 13:35 Sunny 51 10.7 30 -1.3 44 44 E 3 6 29.91 1013 10 16 0.00 0.00
1:55 pm 13:55 Sunny 53 11.9 31 -0.7 42 42 Calm 29.91 1013 10 16 0.00 0.00
2:15 pm 14:15 Sunny 55 12.5 31 -0.6 41 41 Calm 29.91 1013 10 16 0.00 0.00
2:35 pm 14:35 Sunny 55 12.5 30 -1.1 39 39 Calm 29.91 1013 10 16 0.00 0.00
2:55 pm 14:55 Sunny 55 12.5 29 -1.7 38 38 WSW 3 6 29.91 1013 10 16 0.00 0.00
3:15 pm 15:15 Sunny 55 12.5 27 -2.6 35 35 Calm 29.91 1013 10 16 0.00 0.00
3:35 pm 15:35 Sunny 55 12.5 28 -2.4 36 36 WSW 3 6 29.91 1013 10 16 0.00 0.00
3:55 pm 15:55 Sunny 55 12.5 27 -2.7 35 35 Calm 29.91 1013 10 16 0.00 0.00
4:15 pm 16:15 Sunny 55 12.5 27 -2.7 35 35 Calm 29.91 1013 10 16 0.00 0.00
4:35 pm 16:35 Sunny 55 12.5 28 -2 37 37 Calm 29.91 1013 10 16 0.00 0.00
4:55 pm 16:55 Sunny 52 11.2 28 -2 40 40 Calm 29.91 1013 10 16 0.00 0.00
5:15 pm 17:15 Sunny 49 9.7 27 -2.8 42 42 Calm 29.94 1014 10 16 0.00 0.00
5:35 pm 17:35 Sunny 49 9.6 27 -2.8 42 42 Calm 29.94 1014 10 16 0.00 0.00
5:55 pm 17:55 Clear 43 6.1 30 -1.1 60 60 Calm 29.94 1014 10 16 0.00 0.00
6:15 pm 18:15 Clear 41 5 31 -0.8 66 66 Calm 29.94 1014 10 16 0.00 0.00
6:35 pm 18:35 Partly Cloudy 40 4.7 31 -0.7 68 68 Calm 29.97 1015 10 16 0.00 0.00
6:55 pm 18:55 Mostly Cloudy 40 4.4 29 -1.5 66 66 Calm 29.97 1015 10 16 0.00 0.00
7:15 pm 19:15 Mostly Cloudy 37 2.7 29 -1.4 75 75 Calm 30.00 1016 10 16 0.00 0.00
7:35 pm 19:35 Cloudy 39 4 31 -0.7 72 72 N 3 6 29.97 1015 10 16 0.00 0.00
7:55 pm 19:55 Cloudy 39 4 32 -0.2 74 74 Calm 29.97 1015 10 16 0.00 0.00
8:15 pm 20:15 Cloudy 40 4.7 31 -0.7 68 68 Calm 29.97 1015 10 16 0.00 0.00
8:35 pm 20:35 Cloudy 40 4.4 31 -0.4 71 71 Calm 29.97 1015 10 16 0.00 0.00
8:55 pm 20:55 Cloudy 39 4 32 0 75 75 Calm 29.97 1015 10 16 0.00 0.00
9:15 pm 21:15 Cloudy 40 4.7 32 0 72 72 Calm 29.97 1015 10 16 0.00 0.00
9:35 pm 21:35 Cloudy 40 4.5 32 0 73 73 Calm 29.97 1015 10 16 0.00 0.00
9:55 pm 21:55 Cloudy 39 4 32 -0.1 75 75 Calm 29.97 1015 10 16 0.00 0.00
10:15 pm 22:15 Cloudy 40 4.7 32 0.2 73 73 Calm 29.97 1015 10 16 0.00 0.00
10:35 pm 22:35 Cloudy 40 4.2 32 0.1 75 75 Calm 29.97 1015 10 16 0.00 0.00
10:55 pm 22:55 Cloudy 39 4.1 32 0 75 75 Calm 29.97 1015 10 16 0.00 0.00
11:15 pm 23:15 Cloudy 40 4.4 33 0.7 77 77 W 6 9 30.00 1016 10 16 0.00 0.00
11:35 pm 23:35 Cloudy 42 5.5 32 0.2 69 69 Calm 30.00 1016 10 16 0.00 0.00
11:55 pm 23:55 Cloudy 42 5.5 32 0.1 69 69 Calm 29.97 1015 10 16 0.00 0.00

Powered by AerisWeather